Weather History for Natchez, MS

Change the Weather History Date:

Thursday, November 8, 2012

  Actual Average Record
Temperature  
Mean Temperature 52 °F -  
Max Temperature 66 °F 71 °F 85 °F (1989)
Min Temperature 37 °F 48 °F 28 °F (1951)
Degree Days  
Heating Degree Days 14    
Growing Degree Days 2 (Base 50)    
Moisture  
Dew Point 39 °F    
Average Humidity 68    
Maximum Humidity 100    
Minimum Humidity 34    
Precipitation  
Precipitation 0.00 in - - ()
Sea Level Pressure  
Sea Level Pressure 30.20 in    
Wind  
Wind Speed 4 mph (ESE)    
Max Wind Speed 10 mph    
Max Gust Speed -    
Visibility 10 miles    
Events      
Averages and records for this station are not official NWS values.
T = Trace of Precipitation, MM = Missing Value Source: NWS Daily Summary

Daily Weather History Graph

Daily Weather History Graph

Search for Another Location

Airport:

Trip Planner

Search our weather history database for the weather conditions in past years. The results will help you decide how hot, cold, wet, or windy it might be!

Date:

Astronomy

Nov. 08, 2012 Rise Set
Actual Time 6:27 AM CST 5:10 PM CST
Civil Twilight 6:02 AM CST 5:35 PM CST
Nautical Twilight 5:32 AM CST 6:04 PM CST
Astronomical Twilight 5:04 AM CST 6:33 PM CST
Moon 12:44 AM CST (11/8) 1:32 PM CST (11/8)
Length of Visible Light 11h 33m
Length of Day
10h 42m
Waning Crescent, 32% of the Moon is Illuminated
Nov 8
Waning Crescent
Nov 13
New
Nov 20
First Quarter
Nov 28
Full
Dec 6
Last Quarter

Hourly Weather History & Observations

Time (CST) Temp. Windchill Dew Point Humidity Pressure Visibility Wind Dir Wind Speed Gust Speed Precip Events Conditions
12:15 AM 42.8 °F 41.1 °F 37.4 °F 81% 30.17 in 10.0 mi East 3.5 mph - N/A   Clear
12:35 AM 46.4 °F 44.3 °F 35.6 °F 66% 30.17 in 10.0 mi ESE 4.6 mph - N/A   Clear
12:55 AM 46.4 °F 43.5 °F 35.6 °F 66% 30.17 in 10.0 mi ESE 5.8 mph - N/A   Clear
1:15 AM 46.4 °F 43.5 °F 35.6 °F 66% 30.16 in 10.0 mi East 5.8 mph - N/A   Clear
1:35 AM 46.4 °F 43.5 °F 35.6 °F 66% 30.17 in 10.0 mi ESE 5.8 mph - N/A   Clear
1:55 AM 44.6 °F 42.2 °F 35.6 °F 71% 30.16 in 10.0 mi East 4.6 mph - N/A   Clear
2:15 AM 44.6 °F 40.7 °F 35.6 °F 71% 30.17 in 10.0 mi East 6.9 mph - N/A   Clear
2:35 AM 44.6 °F 41.4 °F 35.6 °F 71% 30.16 in 10.0 mi ESE 5.8 mph - N/A   Clear
2:55 AM 44.6 °F 42.2 °F 35.6 °F 71% 30.17 in 10.0 mi ESE 4.6 mph - N/A   Clear
3:15 AM 44.6 °F 41.4 °F 35.6 °F 71% 30.17 in 10.0 mi ESE 5.8 mph - N/A   Clear
3:35 AM 39.2 °F - 35.6 °F 87% 30.18 in 10.0 mi Calm Calm - N/A   Clear
3:55 AM 39.2 °F - 37.4 °F 93% 30.18 in 10.0 mi Calm Calm - N/A   Clear
4:15 AM 37.4 °F 34.9 °F 35.6 °F 93% 30.18 in 10.0 mi NNE 3.5 mph - N/A   Clear
4:35 AM 37.4 °F - 35.6 °F 93% 30.19 in 10.0 mi Calm Calm - N/A   Clear
4:55 AM 37.4 °F - 35.6 °F 93% 30.20 in 10.0 mi Calm Calm - N/A   Clear
5:15 AM 37.4 °F 34.9 °F 35.6 °F 93% 30.20 in 10.0 mi ENE 3.5 mph - N/A   Clear
5:35 AM 37.4 °F - 35.6 °F 93% 30.20 in 10.0 mi Calm Calm - N/A   Clear
5:55 AM 39.2 °F 35.0 °F 39.2 °F 100% 30.20 in 10.0 mi East 5.8 mph - N/A   Clear
6:15 AM 37.4 °F 34.9 °F 35.6 °F 93% 30.22 in 10.0 mi SSW 3.5 mph - N/A   Clear
6:35 AM 37.4 °F 34.9 °F 35.6 °F 93% 30.22 in 10.0 mi East 3.5 mph - N/A   Clear
6:55 AM 37.4 °F - 35.6 °F 93% 30.23 in 10.0 mi Calm Calm - N/A   Clear
7:15 AM 39.2 °F - 37.4 °F 93% 30.24 in 10.0 mi Calm Calm - N/A   Clear
7:35 AM 44.6 °F 43.1 °F 39.2 °F 81% 30.25 in 10.0 mi ESE 3.5 mph - N/A   Clear
7:55 AM 46.4 °F 43.5 °F 37.4 °F 71% 30.26 in 10.0 mi ESE 5.8 mph - N/A   Clear
8:15 AM 48.2 °F - 37.4 °F 66% 30.27 in 10.0 mi SE 5.8 mph - N/A   Clear
8:35 AM 51.8 °F - 39.2 °F 62% 30.27 in 10.0 mi ESE 8.1 mph - N/A   Clear
8:55 AM 51.8 °F - 37.4 °F 58% 30.28 in 10.0 mi ESE 10.4 mph - N/A   Clear
9:15 AM 53.6 °F - 37.4 °F 54% 30.28 in 10.0 mi SE 9.2 mph - N/A   Clear
9:35 AM 53.6 °F - 37.4 °F 54% 30.28 in 10.0 mi ESE 8.1 mph - N/A   Clear
9:55 AM 55.4 °F - 37.4 °F 51% 30.27 in 10.0 mi ESE 6.9 mph - N/A   Clear
10:15 AM 55.4 °F - 35.6 °F 47% 30.27 in 10.0 mi East 5.8 mph - N/A   Clear
10:35 AM 57.2 °F - 35.6 °F 44% 30.27 in 10.0 mi Calm Calm - N/A   Clear
10:55 AM 57.2 °F - 35.6 °F 44% 30.26 in 10.0 mi Calm Calm - N/A   Clear
11:15 AM 59.0 °F - 35.6 °F 42% 30.25 in 10.0 mi NE 5.8 mph - N/A   Clear
11:35 AM 60.8 °F - 37.4 °F 42% 30.24 in 10.0 mi ESE 5.8 mph - N/A   Clear
11:55 AM 60.8 °F - 35.6 °F 39% 30.23 in 10.0 mi East 6.9 mph - N/A   Clear
12:15 PM 60.8 °F - 35.6 °F 39% 30.22 in 10.0 mi Calm Calm - N/A   Clear
12:35 PM 62.6 °F - 35.6 °F 37% 30.21 in 10.0 mi East 5.8 mph - N/A   Clear
12:55 PM 62.6 °F - 37.4 °F 39% 30.20 in 10.0 mi SE 3.5 mph - N/A   Clear
1:15 PM 64.4 °F - 37.4 °F 37% 30.19 in 10.0 mi East 4.6 mph - N/A   Clear
1:35 PM 64.4 °F - 37.4 °F 37% 30.18 in 10.0 mi Calm Calm - N/A   Clear
1:55 PM 64.4 °F - 35.6 °F 34% 30.18 in 10.0 mi East 6.9 mph - N/A   Clear
2:15 PM 64.4 °F - 37.4 °F 37% 30.18 in 10.0 mi Calm Calm - N/A   Clear
2:35 PM 64.4 °F - 37.4 °F 37% 30.17 in 10.0 mi ESE 3.5 mph - N/A   Clear
2:55 PM 64.4 °F - 37.4 °F 37% 30.16 in 10.0 mi Calm Calm - N/A   Clear
3:15 PM 66.2 °F - 37.4 °F 35% 30.16 in 10.0 mi SE 4.6 mph - N/A   Clear
3:35 PM 64.4 °F - 37.4 °F 37% 30.16 in 10.0 mi East 4.6 mph - N/A   Clear
3:55 PM 64.4 °F - 37.4 °F 37% 30.16 in 10.0 mi SE 3.5 mph - N/A   Clear
4:15 PM 64.4 °F - 37.4 °F 37% 30.16 in 10.0 mi ESE 4.6 mph - N/A   Clear
4:35 PM 64.4 °F - 39.2 °F 40% 30.16 in 10.0 mi Calm Calm - N/A   Clear
4:55 PM 62.6 °F - 44.6 °F 52% 30.16 in 10.0 mi Calm Calm - N/A   Clear
5:15 PM 57.2 °F - 46.4 °F 67% 30.17 in 10.0 mi Calm Calm - N/A   Clear
5:35 PM 57.2 °F - 44.6 °F 63% 30.17 in 10.0 mi Calm Calm - N/A   Clear
5:55 PM 53.6 °F - 44.6 °F 72% 30.17 in 10.0 mi Calm Calm - N/A   Clear
6:15 PM 53.6 °F - 44.6 °F 72% 30.17 in 10.0 mi Calm Calm - N/A   Clear
6:35 PM 51.8 °F - 46.4 °F 82% 30.18 in 10.0 mi Calm Calm - N/A   Clear
6:55 PM 50.0 °F - 44.6 °F 82% 30.18 in 10.0 mi Calm Calm - N/A   Clear
7:15 PM 48.2 °F - 44.6 °F 87% 30.18 in 10.0 mi Calm Calm - N/A   Clear
7:35 PM 48.2 °F - 46.4 °F 93% 30.18 in 10.0 mi Calm Calm - N/A   Clear
7:55 PM 48.2 °F - 44.6 °F 87% 30.18 in 10.0 mi Calm Calm - N/A   Clear
8:15 PM 46.4 °F - 44.6 °F 93% 30.18 in 10.0 mi Calm Calm - N/A   Clear
8:35 PM 46.4 °F 45.2 °F 44.6 °F 93% 30.18 in 10.0 mi SSE 3.5 mph - N/A   Clear
8:55 PM 46.4 °F - 44.6 °F 93% 30.18 in 10.0 mi Calm Calm - N/A   Clear
9:15 PM 46.4 °F - 44.6 °F 93% 30.18 in 10.0 mi Calm Calm - N/A   Clear
9:35 PM 46.4 °F 43.5 °F 42.8 °F 87% 30.18 in 10.0 mi SE 5.8 mph - N/A   Clear
9:55 PM 46.4 °F 42.9 °F 42.8 °F 87% 30.18 in 10.0 mi SSE 6.9 mph - N/A   Clear
10:15 PM 48.2 °F - 42.8 °F 82% 30.17 in 10.0 mi SSE 8.1 mph - N/A   Clear
10:35 PM 48.2 °F - 42.8 °F 82% 30.17 in 10.0 mi SSE 6.9 mph - N/A   Clear
10:55 PM 48.2 °F - 41.0 °F 76% 30.18 in 10.0 mi SSE 8.1 mph - N/A   Clear
11:15 PM 48.2 °F - 42.8 °F 82% 30.18 in 10.0 mi SSE 5.8 mph - N/A   Clear
11:35 PM 48.2 °F - 41.0 °F 76% 30.17 in 10.0 mi SE 6.9 mph - N/A   Clear
11:55 PM 46.4 °F 42.9 °F 41.0 °F 81% 30.17 in 10.0 mi SSE 6.9 mph - N/A   Clear